Location: Bakov nad Jizerou
(50.4784°N, 14.9394°E)
Time: 09:01:23
(UTC+00:00)

Cosmos 2322 Rocket - Pass Details

Date: 16 June 2021
Orbit: 833 x 850 km, 71.0° (Epoch: 04 August)

Event Time Altitude Azimuth Distance (km) Brightness Sun altitude
Rises 20:01:18 0° 195° (SSW) 3,399 5.0 -6.2°
Reaches altitude 10° 20:03:45 10° 193° (SSW) 2,469 4.3 -6.4°
Maximum altitude 20:09:20 62° 113° (ESE) 954 2.3 -7.0°
Drops below altitude 10° 20:14:58 10° 34° (NE) 2,487 4.9 -7.5°
Sets 20:17:27 0° 32° (NNE) 3,426 5.7 -7.8°
